TimeEDT,TemperatureF,Dew PointF,Humidity,Sea Level PressureIn,VisibilityMPH,Wind Direction,Wind SpeedMPH,Gust SpeedMPH,PrecipitationIn,Events,Conditions,WindDirDegrees,DateUTC
12:56 AM,32.0,26.1,79,30.35,10.0,Calm,Calm,-,N/A,,Clear,0,2013-03-10 05:56:00
1:56 AM,30.9,26.1,82,30.34,10.0,Calm,Calm,-,N/A,,Clear,0,2013-03-10 06:56:00
3:56 AM,28.9,24.1,82,30.33,10.0,NW,3.5,-,N/A,,Clear,320,2013-03-10 07:56:00
4:56 AM,28.0,24.1,85,30.35,10.0,WNW,4.6,-,N/A,,Clear,300,2013-03-10 08:56:00
5:56 AM,28.9,25.0,85,30.35,9.0,Calm,Calm,-,N/A,,Clear,0,2013-03-10 09:56:00
6:56 AM,28.0,25.0,88,30.37,9.0,Calm,Calm,-,N/A,,Clear,0,2013-03-10 10:56:00
8:56 AM,35.1,28.0,76,30.38,10.0,East,4.6,-,N/A,,Clear,90,2013-03-10 12:56:00
9:56 AM,37.9,30.0,73,30.39,10.0,ESE,8.1,-,N/A,,Clear,120,2013-03-10 13:56:00
10:56 AM,39.9,30.0,68,30.39,10.0,ESE,5.8,-,N/A,,Clear,110,2013-03-10 14:56:00
11:56 AM,41.0,30.9,67,30.38,10.0,ESE,9.2,-,N/A,,Clear,110,2013-03-10 15:56:00
12:56 PM,41.0,30.9,67,30.36,10.0,SSE,6.9,-,N/A,,Clear,150,2013-03-10 16:56:00
1:56 PM,44.1,30.0,58,30.35,10.0,SE,4.6,-,N/A,,Clear,130,2013-03-10 17:56:00
2:56 PM,46.0,30.9,56,30.33,10.0,ESE,5.8,-,N/A,,Clear,110,2013-03-10 18:56:00
3:56 PM,44.1,33.1,65,30.33,10.0,SSE,5.8,-,N/A,,Scattered Clouds,160,2013-03-10 19:56:00
4:56 PM,43.0,33.1,68,30.32,10.0,South,8.1,-,N/A,,Clear,180,2013-03-10 20:56:00
5:56 PM,39.9,30.9,70,30.31,10.0,SSE,9.2,-,N/A,,Clear,150,2013-03-10 21:56:00
6:56 PM,37.9,30.0,73,30.33,10.0,SE,5.8,-,N/A,,Clear,130,2013-03-10 22:56:00
7:56 PM,36.0,30.0,79,30.33,10.0,SE,6.9,-,N/A,,Clear,130,2013-03-10 23:56:00
8:56 PM,36.0,30.9,82,30.34,10.0,SSE,5.8,-,N/A,,Clear,150,2013-03-11 00:56:00
9:56 PM,36.0,30.9,82,30.33,10.0,SSE,8.1,-,N/A,,Clear,150,2013-03-11 01:56:00
10:56 PM,35.1,32.0,89,30.33,10.0,SSE,4.6,-,N/A,,Partly Cloudy,150,2013-03-11 02:56:00
11:56 PM,36.0,32.0,86,30.32,10.0,Calm,Calm,-,N/A,,Scattered Clouds,0,2013-03-11 03:56:00
12:56 AM,36.0,32.0,86,30.32,10.0,Calm,Calm,-,N/A,,Partly Cloudy,0,2013-03-11 04:56:00